Regional Weather Roundup
Issued by NWS

Home | Current Version | Previous Version | Text Only | Print | Product List | Glossary On
Versions: 1 2 3 4 5 6 7 8 9 10 11 12 13 14 15 16 17 18 19 20 21 22 23 24 25 26 27 28 29 30 31 32 33 34 35 36 37 38 39 40 41 42 43 44 45 46 47 48 49 50
000
ASUS43 KIND 261759
RWRIN

WEATHER ROUNDUP FOR INDIANA
NATIONAL WEATHER SERVICE INDIANAPOLIS IN
100 PM EST SUN FEB 26 2017

NOTE: "FAIR" INDICATES FEW OR NO CLOUDS BELOW 12,000 FEET WITH NO
SIGNIFICANT WEATHER AND/OR OBSTRUCTIONS TO VISIBILITY.

* - STATION DOES NOT REPORT WEATHER SUCH AS PRECIPITATION OR FOG.

+ - STATION NOT QUALITY CONTROLLED BY THE NATIONAL WEATHER SERVICE.
    USE DATA WITH CAUTION...ESPECIALLY DEWPOINT AND RELATIVE
    HUMIDITY OBSERVATIONS.

INZ001>003-010>013-019-020-261900-
NORTHWEST INDIANA

CITY           SKY/WX    TMP DP  RH WIND       PRES   REMARKS
GARY /AIRPORT/ MOSUNNY   43  14  31 S17G29    30.01F
KNOX *+        MOSUNNY   41  -8  12 SW20G31   30.04F

$$

LMZ046-743>745-261900-
SOUTHERN LAKE MICHIGAN

STATION/POSITION TIME  TEMP    WIND        PRES    WAVE
                       AIR SEA DIR/SP/G            HT
                 (UTC) (F)     (DEG/KT/KT) (MB)    (FT)
BURNS HARBOR     1740   40     210/ 23/ 31 1015.9F
MICHIGAN CITY    1730   38     170/ 23/ 26   N/A

$$

INZ004-005-014>016-021>024-261900-
NORTH CENTRAL INDIANA

CITY           SKY/WX    TMP DP  RH WIND       PRES   REMARKS
ELKHART        SUNNY     37  19  48 S15G24    30.03F
GOSHEN         SUNNY     40  18  41 S16G26    30.04F
6HR MIN TEMP:  21; 6HR MAX TEMP:  40;

SOUTH BEND     CLOUDY    39  18  42 SW21G30   30.02F
6HR MIN TEMP:  19; 6HR MAX TEMP:  39;


$$

INZ006>009-017-018-025>027-261900-
NORTHEAST INDIANA

CITY           SKY/WX    TMP DP  RH WIND       PRES   REMARKS
ANGOLA *+      SUNNY     37  21  52 S17       30.04F
FORT WAYNE     MOSUNNY   38  22  52 S16       30.10F
6HR MIN TEMP:  20; 6HR MAX TEMP:  38;

KENDALLVILLE + SUNNY     38  20  48 SW16G23   30.05F

$$

INZ028-029-035-036-043>045-051>053-261900-
WEST CENTRAL INDIANA

CITY           SKY/WX    TMP DP  RH WIND       PRES   REMARKS
LAFAYETTE      SUNNY     41  19  41 S14G26    30.10F
6HR MIN TEMP:  18; 6HR MAX TEMP:  41;

TERRE HAUTE    SUNNY     44  13  28 SW14      30.15F
6HR MIN TEMP:  21; 6HR MAX TEMP:  44;


$$

INZ030>032-037>040-046>048-054>057-064-065-261900-
CENTRAL INDIANA

CITY           SKY/WX    TMP DP  RH WIND       PRES   REMARKS
COLUMBUS       SUNNY     39  18  41 S14       30.18F
GREENWOOD *+   SUNNY     42  16  34 S14       30.16F
6HR MIN TEMP:  21; 6HR MAX TEMP:  42;

INDIANAPOLIS   MOSUNNY   42  14  32 S15       30.13F
6HR MIN TEMP:  20; 6HR MAX TEMP:  42;

-EAGLE CREEK   SUNNY     42  14  32 S14       30.12F
6HR MIN TEMP:  20; 6HR MAX TEMP:  42;

KOKOMO +       SUNNY     39  22  50 S21       30.11F
6HR MIN TEMP:  18; 6HR MAX TEMP:  39;

MT COMFORT *+  SUNNY     41  16  36 S13G21    30.14F
SHELBYVILLE    SUNNY     43  16  33 S16G22    30.15F
6HR MIN TEMP:  21; 6HR MAX TEMP:  43;


$$

INZ033-034-041-042-049-050-058-059-261900-
EAST CENTRAL INDIANA

CITY           SKY/WX    TMP DP  RH WIND       PRES   REMARKS
MUNCIE         SUNNY     40  18  41 SW16G25   30.12F
6HR MIN TEMP:  21; 6HR MAX TEMP:  40;


$$

INZ060-061-067>069-081>083-085>088-261900-
SOUTHWEST INDIANA

CITY           SKY/WX    TMP DP  RH WIND       PRES   REMARKS
EVANSVILLE     SUNNY     47  16  29 S9        30.20F
6HR MIN TEMP:  24; 6HR MAX TEMP:  47;

HUNTINGBURG *+ SUNNY     45  12  26 S10       30.21F
6HR MIN TEMP:  19; 6HR MAX TEMP:  45;


$$

INZ062-063-066-070>080-084-089>092-261900-
SOUTH CENTRAL AND SOUTHEAST INDIANA

CITY           SKY/WX    TMP DP  RH WIND       PRES   REMARKS
BLOOMINGTON    SUNNY     44  15  31 SW9       30.15F
6HR MIN TEMP:  17; 6HR MAX TEMP:  44;

MADISON *+     SUNNY     43  18  36 SW8       30.20F

$$




USA.gov is the U.S. government's official web portal to all federal, state and local government web resources and services.